Weather History for Key West NAF, FL

Change the Weather History Date:

Tuesday, October 30, 2012

  Actual Average Record
Temperature  
Mean Temperature 72 °F -  
Max Temperature 75 °F 82 °F 89 °F (1993)
Min Temperature 69 °F 74 °F 65 °F (1952)
Cooling Degree Days 8    
Growing Degree Days 22 (Base 50)    
Moisture  
Dew Point 55 °F    
Average Humidity 55    
Maximum Humidity 61    
Minimum Humidity 46    
Precipitation  
Precipitation 0.00 in - - ()
Sea Level Pressure  
Sea Level Pressure 29.95 in    
Wind  
Wind Speed 12 mph (NW)    
Max Wind Speed 18 mph    
Max Gust Speed 23 mph    
Visibility 10 miles    
Events      
Averages and records for this station are not official NWS values.
T = Trace of Precipitation, MM = Missing Value Source: NWS Daily Summary

Daily Weather History Graph

Daily Weather History Graph

Search for Another Location

Airport:

Trip Planner

Search our weather history database for the weather conditions in past years. The results will help you decide how hot, cold, wet, or windy it might be!

Date:

Astronomy

Oct. 30, 2012 Rise Set
Actual Time 7:32 AM EDT 6:47 PM EDT
Civil Twilight 7:09 AM EDT 7:11 PM EDT
Nautical Twilight 6:42 AM EDT 7:37 PM EDT
Astronomical Twilight 6:15 AM EDT 8:04 PM EDT
Moon 7:25 PM EDT (10/30) 8:10 AM EDT (10/30)
Length of Visible Light 12h 01m
Length of Day
11h 14m
Full, 99% of the Moon is Illuminated
Oct 30
Full
Nov 6
Last Quarter
Nov 13
New
Nov 20
First Quarter
Nov 28
Full

Hourly Weather History & Observations

Time (EDT) Temp. Dew Point Humidity Pressure Visibility Wind Dir Wind Speed Gust Speed Precip Events Conditions
12:53 AM - - N/A% 29.89 in 10.0 mi NW 13.8 mph - N/A   Mostly Cloudy
1:53 AM - - N/A% 29.89 in 10.0 mi NW 13.8 mph 23.0 mph N/A   Overcast
2:53 AM - - N/A% 29.88 in 10.0 mi WNW 18.4 mph 23.0 mph N/A   Mostly Cloudy
3:53 AM - - N/A% 29.88 in 10.0 mi NW 13.8 mph - N/A   Overcast
4:53 AM - - N/A% 29.88 in 10.0 mi WNW 11.5 mph - N/A   Overcast
5:53 AM - - N/A% 29.90 in 10.0 mi NW 16.1 mph - N/A   Overcast
6:20 AM 71.6 °F 50.0 °F 46% 29.90 in 10.0 mi WNW 13.8 mph - N/A   Mostly Cloudy
6:53 AM 71.6 °F 50.0 °F 46% 29.91 in 10.0 mi WNW 17.3 mph 23.0 mph N/A   Mostly Cloudy
7:53 AM 71.6 °F 53.1 °F 52% 29.93 in 10.0 mi WNW 13.8 mph - N/A   Mostly Cloudy
8:53 AM 71.6 °F 52.0 °F 50% 29.94 in 10.0 mi WNW 9.2 mph - N/A   Mostly Cloudy
9:53 AM 71.6 °F 53.6 °F 53% 29.96 in 10.0 mi NW 11.5 mph - N/A   Mostly Cloudy
10:53 AM 73.4 °F 57.0 °F 56% 29.97 in 10.0 mi North 13.8 mph - N/A   Mostly Cloudy
11:53 AM 73.4 °F 59.0 °F 61% 29.97 in 10.0 mi NNE 10.4 mph - N/A   Mostly Cloudy
12:53 PM 73.4 °F 57.9 °F 58% 29.97 in 10.0 mi NE 8.1 mph - N/A   Mostly Cloudy
1:53 PM 73.4 °F 57.9 °F 58% 29.96 in 10.0 mi NNE 9.2 mph - N/A   Mostly Cloudy
2:53 PM 73.4 °F 57.9 °F 58% 29.94 in 10.0 mi NE 8.1 mph - N/A   Mostly Cloudy
3:53 PM 73.4 °F 59.0 °F 61% 29.94 in 10.0 mi Calm Calm - N/A   Mostly Cloudy
4:53 PM 75.9 °F 55.0 °F 48% 29.93 in 10.0 mi NW 11.5 mph - N/A   Mostly Cloudy
5:53 PM 73.0 °F 54.0 °F 51% 29.94 in 10.0 mi NW 13.8 mph - N/A   Mostly Cloudy
6:53 PM 71.1 °F 55.0 °F 57% 29.95 in 10.0 mi NNW 11.5 mph - N/A   Mostly Cloudy
7:53 PM 71.1 °F 54.0 °F 55% 29.98 in 10.0 mi NW 12.7 mph 18.4 mph N/A   Mostly Cloudy
8:53 PM 70.0 °F 53.1 °F 55% 30.01 in 10.0 mi NW 10.4 mph - N/A   Mostly Cloudy
9:53 PM 70.0 °F 53.1 °F 55% 30.03 in 10.0 mi NW 8.1 mph - N/A   Mostly Cloudy
10:53 PM 70.0 °F 54.0 °F 57% 30.04 in 10.0 mi NW 5.8 mph - N/A   Partly Cloudy
11:53 PM 69.1 °F 55.0 °F 61% 30.04 in 10.0 mi NW 5.8 mph - N/A   Partly Cloudy